ZL2ARL Weather Reports


time (UTC)temp
C
wind
direction
speed
KPH
gust
KPH
rain 1hr
cm
rain 24hr
cm
rain mn
cm
humidity
%
barometer
mb
20260505063018 10 358 24.1 35.4 0.00 0.00 0.00 80 1030.8
20260505062032 10 351 22.5 38.6 0.00 0.00 0.00 80 1031.0
20260505061027 10 356 20.9 43.5 0.00 0.00 0.00 80 1031.0
20260505060022 10 353 20.9 37.0 0.00 0.00 0.00 80 1031.0
20260505055018 10 356 19.3 30.6 0.00 0.00 0.00 79 1031.0
20260505054053 10 351 20.9 33.8 0.00 0.00 0.00 79 1030.9
20260505053028 11 357 20.9 37.0 0.00 0.00 0.00 78 1031.0
20260505052023 11 358 24.1 35.4 0.00 0.00 0.00 78 1031.0
20260505051018 11 357 20.9 37.0 0.00 0.00 0.00 77 1031.2
20260505041029 11 351 25.7 40.2 0.00 0.00 0.00 75 1031.2
20260505040024 11 354 27.4 43.5 0.00 0.00 0.00 74 1031.2
20260505035019 11 344 24.1 38.6 0.00 0.00 0.00 73 1031.2
20260505034034 11 342 22.5 43.5 0.00 0.00 0.00 74 1031.2
20260505033029 12 341 24.1 46.7 0.00 0.00 0.00 72 1031.3
20260505032024 12 336 25.7 48.3 0.00 0.00 0.00 70 1031.4
20260505031019 13 358 24.1 37.0 0.00 0.00 0.00 69 1031.3
20260505030034 14 343 20.9 33.8 0.00 0.00 0.00 67 1031.3
20260505025029 13 335 25.7 41.8 0.00 0.00 0.00 67 1031.3
20260505024025 14 355 24.1 43.5 0.00 0.00 0.00 67 1031.3
20260505023019 14 326 27.4 48.3 0.00 0.00 0.00 66 1031.4
20260505022034 13 340 25.7 37.0 0.00 0.00 0.00 69 1031.3
20260505021050 13 334 33.8 54.7 0.00 0.00 0.00 69 1031.3
20260505020025 13 345 27.4 46.7 0.00 0.00 0.00 70 1031.4
20260505015020 13 349 22.5 40.2 0.00 0.00 0.00 70 1031.5
20260505014035 13 350 30.6 48.3 0.00 0.00 0.00 69 1031.5
20260505013030 13 335 29.0 46.7 0.00 0.00 0.00 69 1031.8
20260505012024 13 347 30.6 46.7 0.00 0.00 0.00 69 1031.9
20260505011019 13 349 25.7 37.0 0.00 0.00 0.00 70 1032.1
20260505010035 13 344 29.0 48.3 0.00 0.00 0.00 70 1032.3
20260505005030 12 334 32.2 51.5 0.00 0.00 0.00 71 1032.5
20260505004025 13 346 25.7 37.0 0.00 0.00 0.00 71 1032.5
20260505003020 13 344 27.4 41.8 0.00 0.00 0.00 70 1032.8
20260505002035 12 339 25.7 37.0 0.00 0.00 0.00 72 1032.7
20260505001030 13 331 24.1 45.1 0.00 0.00 0.00 71 1032.8
20260505000025 12 333 25.7 51.5 0.00 0.00 0.00 71 1033.2
20260504235020 13 349 22.5 40.2 0.00 0.00 0.00 71 1033.1
20260504234035 12 350 29.0 45.1 0.00 0.00 0.00 72 1033.3
20260504233030 12 353 27.4 45.1 0.00 0.00 0.00 72 1033.4
20260504232026 12 346 27.4 40.2 0.00 0.00 0.00 71 1033.5
20260504231040 12 352 29.0 46.7 0.00 0.00 0.00 72 1033.5
20260504230016 12 2 24.1 38.6 0.00 0.00 0.00 72 1033.5
20260504225031 12 357 25.7 45.1 0.00 0.00 0.00 72 1033.7
20260504224025 12 360 24.1 43.5 0.00 0.00 0.00 72 1033.6
20260504223021 12 354 29.0 46.7 0.00 0.00 0.00 72 1033.6
20260504222016 12 352 20.9 33.8 0.00 0.00 0.00 73 1033.6
20260504221031 11 344 25.7 48.3 0.00 0.00 0.00 73 1033.6
20260504220026 11 347 22.5 43.5 0.00 0.00 0.00 73 1033.6
20260504215021 11 3 24.1 43.5 0.00 0.00 0.00 73 1033.6
20260504214016 11 347 25.7 41.8 0.00 0.00 0.00 74 1033.7
20260504213031 11 355 24.1 41.8 0.00 0.00 0.00 74 1033.7
20260504212026 11 347 25.7 38.6 0.00 0.00 0.00 74 1033.5
20260504211021 11 355 24.1 41.8 0.00 0.00 0.00 75 1033.6
20260504210016 11 340 25.7 45.1 0.00 0.00 0.00 75 1033.6
20260504205051 11 347 24.1 49.9 0.00 0.00 0.00 76 1033.7
20260504204026 11 348 22.5 41.8 0.00 0.00 0.00 76 1033.6
20260504203021 11 351 20.9 33.8 0.00 0.00 0.00 76 1033.5
20260504202016 11 349 25.7 40.2 0.00 0.00 0.00 76 1033.7
20260504201032 11 353 24.1 41.8 0.00 0.00 0.00 77 1033.6
20260504200027 11 355 27.4 41.8 0.00 0.00 0.00 77 1033.6
20260504195022 11 346 25.7 40.2 0.00 0.00 0.00 77 1033.5
20260504194037 11 358 22.5 37.0 0.00 0.00 0.00 77 1033.4
20260504193032 11 341 20.9 32.2 0.00 0.00 0.00 77 1033.4
20260504192027 11 352 22.5 38.6 0.00 0.00 0.00 76 1033.5
20260504191022 11 344 20.9 35.4 0.00 0.00 0.00 76 1033.4
20260504190017 11 329 24.1 43.5 0.00 0.00 0.00 77 1033.4
20260504185052 11 351 20.9 37.0 0.00 0.00 0.00 76 1033.4
20260504184027 11 345 20.9 35.4 0.00 0.00 0.00 74 1033.3
20260504183022 11 343 20.9 38.6 0.00 0.00 0.00 74 1033.3
20260504182018 11 347 22.5 46.7 0.00 0.00 0.00 75 1033.3
20260504181033 11 353 25.7 40.2 0.00 0.00 0.00 75 1033.3
20260504180028 11 352 27.4 41.8 0.00 0.00 0.00 74 1033.4
20260504175023 11 355 27.4 46.7 0.00 0.00 0.00 74 1033.4
20260504174038 11 348 24.1 38.6 0.00 0.00 0.00 74 1033.3
20260504173033 11 1 27.4 46.7 0.00 0.00 0.00 74 1033.2
20260504172028 11 358 25.7 43.5 0.00 0.00 0.00 74 1033.3
20260504171023 11 348 29.0 46.7 0.00 0.00 0.00 75 1033.2
20260504151044 11 348 22.5 38.6 0.00 0.00 0.00 76 1033.7
20260504141035 11 347 22.5 41.8 0.00 0.00 0.00 78 1034.0
20260504081018 11 1 20.9 38.6 0.00 0.00 0.00 78 1034.1